Location: Newark
(45.7114°N, 9.7358°E)
Time: 14:39:23
(UTC+00:00)

ISS - Visible Passes

Search period start: 19 October 2019 00:00
Search period end: 29 October 2019 00:00
Orbit: 411 x 421 km, 51.6° (Epoch: 19 October)

Date Brightness Start Highest point End Pass type
(mag) Time Alt. Az. Time Alt. Az. Time Alt. Az.
24 Oct -1.1 04:48:44 10° S 04:51:18 20° SE 04:53:51 10° E visible
25 Oct -0.8 04:01:23 10° SSE 04:02:54 13° SE 04:04:25 10° ESE visible
26 Oct -2.9 04:47:20 10° SW 04:50:35 48° SE 04:53:51 10° ENE visible
27 Oct -2.1 04:00:51 23° S 04:02:04 30° SE 04:05:04 10° ENE visible
28 Oct -0.9 03:14:43 16° ESE 03:14:43 16° ESE 03:16:03 10° E visible
28 Oct -3.8 04:47:38 18° WSW 04:50:01 75° NNW 04:53:23 10° ENE visible
